Wind_Speed
3 3 1 1 2 3 4 4 4 4 4 5 4 5 6 6 5 2 5 4 2 4 8 10 12 14 14 13 12 14 19 18 19 19 19 19 18 19 19 19 19 20 20 17 16 18 20 20 18 18 19 18 18 17 16 15 14 13 12 11 11 10 11 11 11 12 12 12 13 14 15 16 17 18 19 20 20 20 21 22 22 22 22 23 24 25
4 3 2 4 4 3 3 3 3 3 3 3 4 5 5 5 4 1 3 3 2 3 7 9 11 14 15 14 16 15 17 18 20 21 21 22 21 20 21 20 20 19 17 16 19 21 20 20 19 19 19 19 18 17 16 15 14 13 13 12 12 11 12 12 13 14 14 14 15 16 17 18 19 20 21 22 23 24 25 25 25 25 25 26 27 27
3 0 4 4 3 1 1 1 3 3 3 4 3 5 4 3 3 1 3 2 1 2 6 9 10 13 16 16 17 16 17 18 21 23 23 23 23 22 22 21 21 19 18 19 21 21 20 20 20 20 20 19 18 17 16 16 15 15 15 14 14 13 14 15 16 17 17 17 18 20 20 21 22 23 24 25 26 27 28 28 29 29 30 30 31 31
2 3 5 3 1 1 0 1 3 3 4 3 3 4 3 3 4 2 2 0 4 5 7 9 10 13 16 15 15 17 18 17 18 21 22 22 23 23 23 22 22 22 21 21 21 20 21 21 21 21 21 20 19 18 18 18 17 17 17 16 16 16 17 18 19 19 19 20 22 23 24 24 25 26 27 29 30 30 30 31 31 32 32 32 32 32
3 5 4 2 1 2 2 1 3 4 3 2 1 4 4 4 4 4 3 5 7 7 6 8 9 9 8 8 9 9 12 13 14 17 18 19 20 21 21 21 23 23 23 22 21 21 21 22 23 22 21 21 20 20 20 20 20 19 19 18 18 19 20 21 21 21 22 22 23 25 26 26 27 28 29 29 29 28 28 28 28 29 30 29 28 28
5 4 2 1 1 2 3 3 1 3 4 2 1 3 4 5 6 7 7 8 7 4 4 3 8 5 1 5 6 6 7 10 12 14 16 18 18 18 19 20 21 23 23 22 21 21 21 22 25 24 23 23 22 22 23 23 23 22 21 21 21 22 22 22 22 23 23 22 23 23 24 26 26 26 25 23 22 21 21 22 23 25 28 28 27 27
3 2 1 1 2 2 4 4 1 1 5 2 1 3 3 4 5 7 7 5 6 5 2 4 6 7 4 8 8 7 8 9 10 12 15 17 19 20 22 22 23 24 25 26 23 21 21 23 26 26 25 25 24 25 26 26 25 24 23 23 23 23 24 24 23 22 21 20 20 21 22 23 24 24 23 22 22 22 23 23 22 24 25 27 27 28
3 4 3 2 4 4 4 3 2 0 5 2 1 2 2 4 6 6 6 6 6 7 4 6 5 8 7 7 5 6 7 8 9 11 14 17 20 22 24 25 27 26 26 29 29 25 23 25 28 27 27 27 27 29 29 28 27 26 25 25 25 25 24 23 22 20 19 19 20 20 21 22 23 24 24 24 24 24 24 23 23 24 25 26 27 29
1 3 4 3 5 4 1 2 3 0 3 1 1 3 3 4 6 5 5 6 5 6 6 5 4 6 7 4 4 6 6 9 10 11 12 17 21 24 24 25 28 28 25 25 27 28 28 29 29 29 29 30 31 31 31 29 28 27 26 25 24 23 22 21 20 20 20 20 20 21 22 22 23 23 23 23 23 23 24 24 25 26 26 27 28 30
1 1 1 2 4 2 2 4 3 1 1 2 1 3 4 5 6 5 5 6 4 6 7 3 4 4 8 7 3 5 6 8 9 9 10 15 20 23 25 26 26 25 23 22 23 25 27 29 30 30 31 32 32 32 30 29 27 26 24 23 21 21 20 21 20 21 21 21 21 21 22 22 22 22 22 23 23 24 25 26 26 27 27 27 28 28
3 2 0 2 2 1 4 3 2 1 1 0 2 4 5 6 6 5 5 4 4 5 3 3 3 2 6 7 4 3 3 6 7 7 8 11 15 19 20 22 22 22 24 26 26 26 28 29 30 30 30 31 31 30 28 26 25 23 22 21 21 21 21 21 22 22 22 22 22 21 21 22 22 22 23 24 25 25 26 26 27 27 26 25 24 22
4 3 2 2 2 2 3 2 2 1 2 2 3 4 5 5 5 4 4 3 5 4 2 5 2 3 6 7 4 1 1 5 6 7 8 9 12 15 15 17 20 24 28 30 31 31 32 31 30 29 29 30 29 28 26 25 23 23 23 22 21 21 21 22 23 23 22 22 22 22 22 22 23 24 25 26 27 27 27 27 27 25 22 20 18 16
4 4 4 4 3 4 4 3 3 3 4 4 4 4 5 5 3 4 4 3 5 2 4 4 1 4 10 10 9 9 7 7 7 7 9 12 13 14 16 19 21 24 28 29 31 33 33 32 30 29 30 29 28 27 26 25 24 24 23 22 21 22 22 23 23 22 22 22 22 22 22 23 24 26 27 28 29 28 27 25 25 22 18 16 14 13
2 3 6 5 3 6 7 4 2 2 4 5 4 3 4 5 5 6 5 5 6 1 4 4 1 6 10 9 11 14 12 11 11 9 9 12 14 14 17 21 22 23 25 27 30 32 32 32 31 30 30 29 28 28 26 25 25 24 23 22 22 23 23 23 22 22 22 22 22 22 23 24 26 28 29 30 29 27 25 23 22 19 16 15 13 12
3 1 5 4 2 7 8 4 2 2 2 3 1 3 4 4 5 6 5 6 7 6 2 3 1 6 7 3 2 3 2 6 10 9 8 9 11 14 17 20 22 24 26 28 30 31 31 31 31 31 30 29 29 27 26 25 25 24 23 23 23 23 22 22 22 22 21 22 23 24 26 27 29 30 30 28 26 24 23 22 21 19 17 16 14 13
5 2 3 3 3 6 6 1 1 3 3 2 1 2 4 2 4 5 4 4 5 7 5 4 4 7 8 7 4 5 4 5 7 7 8 8 11 15 18 21 24 26 28 30 31 31 32 31 31 31 30 29 28 27 26 25 25 25 24 24 23 22 22 22 22 22 22 23 25 26 28 29 30 30 28 25 23 22 21 20 19 18 17 15 13 12
4 2 5 3 2 3 1 1 1 3 2 2 2 2 0 2 3 5 4 1 2 6 6 6 8 8 9 11 4 7 6 6 7 7 9 10 11 15 19 23 26 29 30 31 32 32 32 32 31 31 30 29 27 26 26 26 26 26 25 24 22 22 22 22 22 23 24 24 26 27 28 29 28 26 23 21 20 19 18 17 17 16 14 13 13 11
3 3 4 4 2 3 1 1 3 4 2 2 2 1 1 0 2 4 4 3 4 8 7 7 11 10 7 7 0 6 7 8 9 9 9 11 12 15 21 25 27 30 31 31 32 33 33 32 32 31 29 28 27 27 28 28 27 26 24 23 23 23 23 22 22 23 25 25 26 27 28 27 25 22 20 19 18 17 16 16 15 14 14 14 14 14
2 4 2 2 1 4 3 2 4 5 5 4 3 2 2 2 2 3 3 5 6 8 8 9 11 10 8 8 5 6 8 8 9 9 9 11 14 19 25 27 28 29 31 32 33 34 33 33 32 31 29 28 28 28 29 28 27 25 24 24 24 23 22 22 23 24 25 25 26 26 25 24 21 19 17 16 16 16 15 15 14 14 14 15 16 17
1 3 1 1 1 3 4 4 5 5 5 2 3 2 2 2 4 4 2 3 5 7 9 8 7 7 8 9 10 10 9 8 8 8 9 11 16 22 27 30 31 31 33 35 35 35 35 33 31 30 29 29 29 29 29 29 27 26 26 25 24 23 23 23 24 24 24 25 25 24 23 22 19 17 16 15 15 15 14 14 13 13 14 14 14 15
2 3 3 1 3 3 5 5 5 5 5 5 5 5 5 3 2 4 3 3 5 7 8 9 8 8 7 5 7 9 8 7 8 8 9 13 19 23 28 32 34 35 36 37 37 37 34 32 31 31 30 30 30 30 30 29 28 27 27 26 24 23 23 24 24 24 23 24 24 23 21 20 18 16 16 15 15 15 14 14 13 13 13 12 12 12
3 3 4 3 4 6 5 2 1 2 2 4 6 7 7 6 3 4 5 4 3 5 6 7 9 11 7 4 5 8 7 7 9 9 9 14 20 23 25 30 34 37 38 38 38 36 34 33 32 32 31 31 32 32 31 30 29 29 27 25 24 23 23 24 23 23 23 23 23 22 20 18 16 16 15 14 14 15 14 14 14 13 12 11 11 11
1 3 6 8 8 5 1 4 4 4 3 2 4 5 6 6 7 7 6 3 3 4 3 3 8 12 6 6 6 8 6 6 8 9 8 11 17 21 22 26 30 34 37 38 37 35 33 33 33 32 32 32 33 32 31 31 30 28 26 25 23 23 23 23 23 22 23 23 22 21 18 17 15 15 14 13 14 15 14 14 13 13 12 12 11 11
1 3 5 8 9 3 4 4 3 2 2 3 5 7 7 6 6 5 3 1 2 5 4 3 9 11 2 4 3 3 3 5 7 8 9 9 12 16 19 22 27 31 34 34 35 34 33 34 33 33 33 33 33 33 32 31 29 27 26 24 23 22 23 23 22 23 22 21 20 19 17 16 15 14 14 13 14 15 14 13 13 13 12 12 12 12
4 4 4 6 8 4 2 2 2 1 3 5 6 8 10 6 3 2 2 1 5 10 10 7 11 12 2 4 1 2 3 6 7 9 10 11 11 13 17 20 24 27 30 32 33 34 34 34 34 33 33 33 34 33 32 30 28 28 26 24 23 22 23 23 23 23 22 20 19 17 16 16 16 14 14 14 15 15 14 13 13 13 12 12 12 13
3 5 4 5 7 7 7 5 1 1 3 5 5 8 11 9 8 4 4 5 7 9 10 9 12 14 7 2 3 4 5 7 8 10 11 12 13 14 17 19 22 25 30 33 34 35 35 34 34 33 33 33 34 34 32 31 29 28 26 24 23 22 23 24 23 22 20 18 18 17 16 16 16 15 15 15 15 15 14 14 13 13 13 13 13 13
3 5 8 11 11 10 11 8 1 2 3 6 6 9 10 10 11 9 5 8 10 6 7 13 15 16 17 12 8 8 8 9 9 11 12 14 15 15 17 20 23 27 31 33 34 35 35 34 34 33 33 33 34 34 32 31 29 28 26 25 24 23 23 23 23 21 17 16 18 18 16 16 16 16 16 16 15 15 14 14 14 14 14 14 15 15
3 7 9 14 17 17 18 17 8 3 8 12 10 8 10 11 12 11 12 15 11 5 11 17 15 14 19 20 16 15 14 12 11 12 13 14 15 17 19 20 22 26 28 31 34 35 35 35 34 33 33 33 34 34 32 31 30 28 27 25 25 25 24 23 22 20 16 16 18 17 16 17 17 17 16 16 16 15 15 15 15 15 15 15 16 16
4 8 6 8 16 20 19 19 16 12 13 15 15 14 12 12 14 15 19 20 12 9 16 19 16 16 19 20 19 17 16 16 16 18 18 16 15 16 19 20 21 24 27 31 34 35 35 35 34 33 33 34 35 34 33 32 30 29 28 26 26 25 24 22 20 19 17 17 18 18 18 18 18 17 16 16 16 16 15 16 16 16 16 16 17 17
4 6 3 3 10 18 18 18 17 16 16 16 18 19 17 16 18 18 20 22 18 19 23 24 25 25 21 18 20 22 22 21 20 20 18 17 18 19 19 19 21 24 28 32 35 36 36 35 34 33 33 34 36 35 34 33 32 30 28 27 26 25 23 21 19 19 18 17 18 18 18 18 17 17 17 17 16 16 16 16 16 17 17 17 18 18
6 3 1 3 6 14 15 12 12 14 14 15 18 19 18 18 19 18 18 18 18 20 24 25 24 22 18 17 19 22 23 20 18 18 18 18 19 19 20 20 21 23 27 32 36 36 35 34 33 33 34 35 36 36 35 34 32 31 29 27 26 23 21 21 19 18 18 18 19 19 18 17 17 17 17 17 17 17 17 17 17 17 17 18 19 19
7 3 0 2 6 12 8 3 5 8 10 15 19 21 20 19 17 16 16 15 15 17 18 16 14 14 13 13 13 15 16 15 14 15 16 17 17 16 17 20 22 24 26 29 33 35 35 35 35 35 35 36 37 36 36 34 32 31 28 26 25 22 20 21 20 18 18 18 18 18 18 18 18 18 18 18 18 18 18 18 18 18 18 19 20 20
6 5 3 2 6 10 3 1 3 7 9 12 12 12 13 14 14 15 13 14 16 14 10 9 10 11 12 12 13 14 14 14 16 16 15 15 16 15 17 19 23 25 25 26 29 33 34 35 35 35 35 36 36 36 35 33 31 29 26 25 23 21 21 21 20 18 18 18 18 18 19 19 19 19 18 18 18 19 18 18 18 18 19 20 20 21
6 6 5 4 6 8 3 4 7 9 10 8 2 0 4 7 9 12 12 12 13 11 10 11 12 13 15 14 14 16 17 19 22 19 15 16 17 16 17 19 22 25 25 25 28 30 31 32 33 33 33 34 34 34 33 31 29 27 25 24 23 22 22 21 20 18 19 19 19 19 19 19 19 19 19 18 19 19 19 19 19 19 20 20 21 22
6 6 5 4 5 8 6 6 8 9 7 4 3 2 3 6 8 11 13 11 10 10 13 16 16 16 16 15 17 20 23 25 24 19 17 21 22 21 21 23 24 26 27 27 27 28 28 29 29 30 31 32 33 32 31 30 28 26 25 24 24 23 22 21 20 19 19 20 20 20 20 20 20 19 19 19 19 20 19 19 19 20 20 21 22 23
6 6 4 4 4 5 5 5 7 6 8 12 8 2 2 1 2 5 8 8 9 12 15 16 15 14 14 17 22 23 24 23 19 17 23 28 28 26 25 25 24 25 26 27 27 27 27 26 26 28 29 30 31 31 30 29 27 26 24 24 24 23 22 21 21 21 20 20 20 20 20 20 20 20 19 20 20 20 20 20 20 20 21 22 23 24
5 6 5 5 5 5 6 8 9 10 14 12 6 2 4 4 6 5 7 10 10 11 12 12 13 14 16 22 27 25 21 16 12 15 21 23 20 18 19 21 22 23 24 25 24 24 23 23 23 25 27 28 29 28 28 28 26 25 24 24 23 22 22 22 22 21 21 21 21 21 21 21 21 20 20 20 21 21 20 20 21 22 22 23 24 25
5 6 6 6 6 5 7 7 7 9 8 3 4 4 4 5 5 4 7 8 6 11 15 15 16 18 18 22 27 25 17 12 11 13 14 11 9 13 17 21 23 23 24 23 22 21 21 22 23 25 26 26 26 26 26 27 26 24 24 23 22 22 23 23 22 21 21 21 21 21 21 21 21 21 21 21 21 21 21 21 22 23 23 24 25 25
5 5 5 6 7 6 6 6 6 6 3 5 5 2 2 4 4 5 7 5 7 20 25 21 18 20 19 22 25 22 13 10 11 12 11 11 16 21 23 24 24 23 23 23 22 21 21 21 22 23 24 24 25 26 26 26 24 23 23 23 22 22 23 23 22 21 21 21 21 22 22 22 22 22 22 22 22 22 22 22 23 24 24 25 25 26
5 5 5 7 9 7 7 7 6 5 4 9 9 5 3 3 4 6 7 4 14 29 33 27 23 24 25 25 23 15 10 11 13 16 21 25 28 28 26 25 24 23 22 22 22 22 21 20 20 21 22 23 24 25 24 24 23 23 23 22 22 23 23 21 20 20 21 22 22 23 22 22 22 22 22 22 22 22 22 23 24 24 25 25 26 26
4 5 7 9 9 8 9 9 6 5 4 12 15 12 8 6 6 5 6 11 23 32 33 30 29 28 28 27 21 14 16 22 25 29 34 36 35 33 29 26 24 23 22 22 22 21 20 19 19 20 21 22 23 23 23 22 23 23 22 22 23 23 21 20 20 21 22 23 23 23 22 22 23 22 22 22 22 23 24 24 24 25 26 26 26 27
4 4 5 8 8 7 7 8 8 6 4 13 16 14 11 7 5 6 14 23 30 31 30 30 30 29 29 29 26 25 28 32 32 34 36 36 36 35 32 28 26 25 25 24 23 22 20 19 19 20 21 22 22 23 22 22 22 22 22 23 23 21 20 20 21 22 23 24 24 23 22 23 23 23 23 23 23 24 24 25 25 26 26 26 27 27
3 4 3 4 5 4 5 4 5 5 7 20 20 12 8 8 10 16 24 28 29 29 29 30 29 29 29 30 32 34 35 35 35 34 33 34 35 33 32 30 28 27 26 25 23 22 20 20 20 21 22 22 22 22 22 22 22 22 23 22 20 20 20 21 21 23 24 24 23 23 23 23 23 23 23 23 23 24 25 25 26 26 26 26 27 28
2 1 3 2 1 1 3 3 3 4 9 19 17 8 8 14 19 24 26 26 29 32 31 29 30 31 31 31 34 37 37 36 35 33 32 32 33 33 32 31 29 28 27 25 23 22 20 20 20 21 22 22 22 22 22 22 22 22 22 21 19 20 22 21 22 24 25 24 23 23 23 23 23 24 23 23 24 25 26 26 26 27 27 27 27 28
6 7 7 5 3 6 5 5 8 13 16 22 21 17 18 22 27 29 28 27 30 31 30 30 32 34 35 35 35 36 36 36 36 36 34 33 33 34 33 31 30 29 27 25 23 22 21 20 20 20 21 21 21 21 21 21 22 22 21 20 20 21 22 22 24 25 24 23 23 23 23 23 23 24 23 24 24 26 26 26 27 27 27 27 28 29
10 15 11 5 7 10 8 7 13 18 22 29 31 26 23 25 30 32 31 30 30 31 32 32 33 36 39 39 36 34 36 37 38 40 38 35 35 36 34 32 31 29 26 26 25 22 21 20 21 21 21 21 21 21 21 21 22 21 20 19 20 21 22 23 25 24 23 23 23 23 23 23 24 24 24 24 25 26 27 27 28 28 27 27 29 29
11 17 12 6 8 9 7 9 15 19 25 31 30 25 24 28 33 34 32 31 32 34 35 35 35 37 37 36 33 33 36 38 38 39 39 37 37 37 35 32 30 28 26 25 24 22 21 21 22 22 21 21 21 21 20 21 21 20 20 20 21 21 22 24 25 24 23 23 23 23 23 24 24 24 24 25 26 27 28 28 29 29 28 28 28 29
12 15 11 7 9 9 8 10 18 26 31 26 19 19 27 33 37 38 37 34 33 34 36 37 37 36 35 35 34 35 37 40 38 37 37 37 38 37 34 32 29 26 25 23 22 21 21 22 22 21 20 21 21 20 20 20 20 20 20 21 21 21 23 24 24 24 23 23 23 23 23 24 24 24 25 26 27 28 29 29 29 29 29 28 27 28
11 11 9 9 10 8 8 13 22 25 24 20 20 26 31 34 37 40 40 39 38 38 38 39 39 37 35 35 35 36 39 41 40 37 37 37 36 35 33 30 27 24 22 21 21 21 21 21 21 20 19 20 20 21 20 20 20 20 20 21 21 21 22 23 24 24 24 23 23 23 24 24 25 24 25 26 28 29 30 29 29 29 29 29 27 27
9 7 8 9 8 7 9 17 22 16 13 21 34 39 38 36 36 37 39 40 41 41 41 41 42 41 38 36 34 35 38 41 40 38 38 37 35 32 30 27 24 22 20 20 20 20 20 20 20 19 19 20 21 22 22 20 20 20 20 21 21 21 22 23 23 24 24 24 23 23 24 24 25 25 25 27 28 30 30 29 29 29 29 29 28 27
11 10 11 9 8 10 17 24 25 18 16 26 38 41 40 38 36 37 39 40 40 41 40 40 42 43 41 39 35 33 35 38 39 38 37 36 34 30 27 24 22 20 20 20 19 19 19 19 19 19 20 20 22 22 21 20 20 20 20 20 21 21 22 23 24 24 24 24 24 23 23 24 25 25 26 28 29 29 29 30 30 29 29 29 29 29
Wind_Direction
248 235 201 2 45 45 27 18 357 346 334 324 304 288 285 279 285 93 102 97 63 295 262 256 265 268 268 268 253 211 191 201 214 215 219 217 215 214 212 215 216 220 224 220 217 218 219 219 216 217 217 216 215 213 212 211 210 210 214 217 218 224 231 236 243 249 253 256 261 265 268 271 273 275 275 275 276 275 274 276 278 280 282 283 284 284
239 252 71 45 33 36 18 6 336 323 321 299 281 284 273 268 288 85 113 122 118 278 272 272 273 270 268 266 261 234 195 200 211 211 217 217 215 216 214 215 215 218 217 212 218 222 221 217 214 215 215 213 212 209 209 208 208 211 213 216 221 228 235 239 245 250 254 256 260 263 265 268 270 272 274 276 277 277 277 277 277 279 280 281 281 281
215 119 81 60 39 37 18 353 311 301 290 275 269 278 279 304 316 292 125 134 182 247 276 289 286 277 272 264 259 240 207 205 211 211 216 216 215 216 215 214 213 214 210 210 219 223 223 219 214 216 214 211 211 209 209 210 211 215 216 219 225 232 237 240 244 247 252 257 258 261 263 265 267 269 272 273 275 277 279 280 281 280 280 280 280 280
204 92 83 60 23 302 65 21 299 278 255 263 280 278 292 9 336 277 121 123 244 241 280 301 294 280 271 260 257 240 216 213 217 217 217 217 217 217 216 214 211 210 207 208 212 214 221 223 217 215 214 212 212 212 213 213 215 218 220 223 227 233 237 241 246 249 253 257 262 267 269 270 271 272 274 275 277 279 280 281 281 282 281 282 284 286
81 70 58 53 295 319 322 272 278 277 252 201 272 302 319 353 327 292 321 315 270 235 251 289 286 274 260 242 244 228 212 219 223 219 215 214 217 218 217 215 212 211 209 208 208 207 212 221 223 219 216 218 217 216 216 217 221 223 223 226 229 234 238 243 248 254 258 263 268 272 276 278 278 278 279 280 281 283 284 285 286 287 288 290 293 295
79 58 31 198 220 318 301 278 317 301 281 203 144 354 337 329 316 297 306 310 287 243 197 270 298 294 192 223 228 177 189 220 217 214 214 210 211 214 214 214 212 212 213 210 210 210 208 215 224 225 222 223 221 220 221 223 225 227 226 228 232 237 242 247 253 258 264 268 272 275 278 279 280 280 281 281 281 280 280 282 284 286 290 295 298 299
85 88 344 261 241 265 265 266 77 327 284 264 66 14 339 304 296 290 298 290 291 306 190 192 286 290 273 269 250 179 190 219 210 212 218 212 210 212 213 214 213 214 217 217 215 211 205 210 222 225 226 226 226 227 227 226 228 229 231 233 237 243 248 253 257 261 265 269 274 277 279 280 280 278 276 274 272 273 275 277 278 280 285 291 295 297
112 142 187 220 231 237 242 238 100 313 279 296 25 321 281 273 274 282 290 267 278 312 263 190 235 278 281 275 238 174 199 222 214 217 219 216 214 215 215 217 219 218 219 221 220 214 206 212 222 225 226 228 230 231 230 229 231 233 236 239 243 247 251 254 257 261 265 269 274 279 281 281 280 278 276 274 273 274 277 278 279 281 284 288 291 295
158 172 181 198 221 230 216 106 82 334 273 39 66 264 258 264 270 271 276 269 278 309 283 202 190 267 277 265 163 161 220 235 227 222 216 216 217 217 217 217 219 220 218 217 219 217 216 221 226 225 226 228 230 233 233 234 236 238 241 243 245 246 248 252 256 260 264 267 272 275 277 277 277 276 276 276 277 279 280 282 285 287 289 292 294 296
177 161 161 234 237 224 99 94 77 304 290 51 172 246 248 246 256 250 253 275 281 280 275 207 158 267 287 284 200 177 229 239 228 222 214 215 216 217 219 218 218 218 213 207 209 214 218 222 225 225 226 229 232 234 235 235 236 237 238 238 239 240 245 251 255 257 260 264 267 270 272 273 275 276 277 280 283 286 289 291 292 293 294 294 294 294
122 74 326 255 259 76 96 104 69 331 306 3 223 247 248 230 233 241 243 267 271 260 257 124 126 264 292 291 256 185 213 220 209 208 204 208 213 215 218 219 214 208 206 207 209 214 219 222 224 227 229 229 229 229 228 228 228 229 229 231 234 239 245 251 253 255 259 263 267 270 273 276 278 280 283 287 289 292 292 292 292 291 291 290 288 286
156 189 189 178 163 119 132 159 144 196 231 245 252 274 279 244 222 232 221 211 248 263 112 102 109 245 254 272 273 145 162 197 201 207 200 197 204 207 208 209 207 207 212 215 217 220 222 224 225 225 224 222 220 219 218 219 221 222 226 230 235 242 248 253 255 258 262 266 269 273 276 280 283 286 289 291 292 292 291 290 289 287 285 283 279 275
183 185 141 122 165 192 203 202 175 184 203 231 252 268 284 280 259 251 240 231 257 266 112 114 28 259 248 257 263 257 237 209 203 211 211 204 198 196 201 207 208 212 218 219 219 221 222 222 221 217 213 211 210 211 213 216 219 223 227 233 240 247 252 254 257 260 263 267 271 276 280 284 286 288 289 290 289 288 286 284 282 280 277 274 271 266
199 144 148 153 182 195 210 231 217 186 188 209 246 271 279 297 299 280 280 278 278 299 122 134 26 276 265 268 262 256 245 221 206 198 207 208 196 191 200 207 209 211 214 214 215 216 216 215 213 209 205 205 206 209 212 217 221 226 231 237 244 249 252 255 258 261 265 270 275 280 284 286 288 289 289 288 286 282 278 275 273 271 269 266 265 262
277 262 166 173 133 166 199 241 337 341 235 206 293 307 279 284 281 280 296 290 291 310 284 162 179 263 273 301 232 235 236 213 204 187 187 194 187 189 198 203 207 207 207 209 210 210 210 208 205 202 202 204 207 211 216 221 225 229 234 240 245 249 252 256 260 265 270 275 280 283 286 288 290 290 289 286 282 277 274 272 269 268 266 265 263 259
260 268 108 85 86 157 192 195 44 299 264 190 98 266 257 275 273 273 291 291 297 306 280 214 228 254 269 281 225 155 133 172 183 174 176 182 181 187 196 202 205 205 205 206 206 204 203 202 201 201 203 206 211 216 220 225 228 232 236 241 246 250 254 258 263 269 274 278 282 285 287 290 291 290 287 283 278 276 275 275 273 272 269 266 262 260
268 253 114 114 128 154 184 62 193 277 289 148 185 229 247 17 304 278 269 245 257 275 263 230 247 260 276 285 240 157 180 194 186 189 191 193 191 192 199 203 205 205 205 204 202 201 199 199 200 203 207 211 215 221 225 228 231 234 239 243 247 251 256 261 266 272 276 280 283 286 289 291 290 288 284 279 276 276 275 274 272 269 265 259 256 257
300 277 158 165 172 134 65 338 245 255 264 233 235 298 25 147 277 271 264 276 264 266 267 247 257 267 273 285 178 150 198 214 209 210 208 204 202 205 208 207 207 206 205 203 200 199 200 200 203 206 211 216 220 226 229 231 233 236 241 245 249 254 259 264 270 275 279 282 286 290 293 292 290 286 282 277 276 275 273 271 269 265 260 253 249 248
297 282 183 152 135 134 149 247 241 216 217 259 307 342 307 264 239 211 241 287 282 275 280 264 258 260 248 248 251 221 208 209 214 209 209 211 209 213 213 210 209 208 206 204 201 201 202 204 207 211 215 219 224 229 231 232 235 238 243 247 251 255 259 266 272 277 282 286 291 294 294 291 287 283 280 277 275 274 272 270 269 265 261 257 254 255
228 265 261 110 114 140 175 220 226 197 181 233 293 260 224 283 273 253 259 292 278 277 286 277 256 247 246 243 245 241 219 210 214 203 209 216 211 214 215 212 211 211 209 207 205 205 206 208 211 215 220 225 229 232 233 234 237 240 244 247 249 254 259 267 274 280 286 291 294 295 292 288 286 281 278 276 274 274 273 271 269 266 264 264 263 264
195 218 265 174 139 196 210 202 217 212 171 175 210 212 195 178 237 272 266 242 252 267 278 279 270 262 259 236 229 237 222 211 219 216 221 224 218 219 218 215 214 214 212 210 208 208 208 210 214 218 223 228 230 233 234 235 238 241 243 245 248 254 262 271 278 283 289 294 295 293 289 285 282 278 276 275 273 273 272 271 270 268 268 269 269 270
210 219 260 249 223 238 226 177 306 304 194 192 204 203 202 188 181 251 252 216 217 253 267 281 284 276 257 195 231 252 234 219 226 229 230 228 226 225 223 220 218 216 215 212 210 210 210 213 218 222 226 229 231 233 233 235 238 241 243 246 251 259 268 276 282 287 292 294 293 290 284 279 275 272 271 270 269 269 269 268 268 269 268 269 271 274
342 269 261 261 258 251 140 79 43 15 351 282 248 228 215 197 197 230 251 234 201 237 283 301 281 278 254 173 215 242 229 224 228 231 238 233 230 230 227 224 221 217 214 211 209 210 213 218 221 225 229 231 232 232 233 236 239 241 244 249 256 264 272 278 283 288 292 292 289 285 279 274 270 268 268 266 263 264 266 266 267 267 266 267 270 273
158 251 247 267 268 229 114 102 86 37 333 262 245 227 220 212 206 228 262 318 254 241 248 262 263 271 276 127 186 201 183 220 225 230 241 236 232 230 223 220 218 215 211 209 211 214 217 221 224 227 230 231 231 232 234 237 239 242 246 251 258 266 273 278 283 288 291 288 283 278 272 270 268 266 264 260 258 262 265 265 266 267 267 269 271 273
186 232 233 275 286 259 195 192 182 165 201 230 239 215 209 201 120 40 295 262 264 247 233 245 264 265 276 89 137 179 197 233 232 228 234 234 231 221 210 209 211 209 207 208 213 216 219 222 225 229 232 232 231 232 235 238 240 243 248 253 260 267 273 278 283 287 288 284 276 270 265 265 264 262 259 256 257 261 264 263 264 267 269 270 271 271
215 255 231 246 276 270 265 271 275 207 192 211 224 205 203 187 154 179 243 234 246 239 214 220 249 260 263 142 167 204 214 233 238 229 225 229 231 219 206 203 203 204 207 210 214 218 221 224 227 230 233 233 232 233 235 238 241 244 248 254 260 267 272 278 283 286 284 276 268 264 261 260 259 256 254 256 258 260 262 263 265 267 269 269 269 267
257 266 238 238 250 253 263 278 358 76 243 244 224 193 191 191 187 198 229 237 238 236 227 229 237 260 275 269 259 263 256 251 251 239 226 221 222 220 212 206 206 208 211 213 216 219 222 225 229 231 233 233 232 233 236 239 241 244 248 254 260 265 270 277 282 284 280 268 261 261 259 256 254 253 253 255 256 258 260 262 263 265 266 267 267 266
255 260 235 233 244 249 261 274 282 270 263 267 261 224 197 189 190 199 219 232 236 247 257 249 238 249 268 273 278 285 284 281 281 275 262 244 229 223 217 211 211 213 214 216 219 221 224 228 230 232 233 232 232 233 236 239 241 245 249 255 261 266 271 277 280 282 275 261 257 258 255 251 251 253 254 254 255 256 258 259 261 264 264 266 267 267
250 265 236 221 248 256 261 269 274 273 268 268 266 255 234 201 187 199 222 231 229 233 252 263 267 263 267 277 283 286 288 290 292 290 283 270 256 242 226 214 211 214 217 220 223 226 228 230 231 232 233 233 232 233 236 239 242 245 250 256 262 267 272 277 278 277 270 258 254 252 249 249 252 254 254 254 255 257 258 260 262 264 266 266 267 268
233 262 234 185 263 270 266 263 262 260 263 264 260 258 251 232 212 210 226 235 235 241 252 264 272 271 271 277 281 283 287 290 290 287 276 264 263 262 250 231 219 219 223 226 228 231 232 233 234 235 235 234 233 235 238 241 243 246 251 256 260 266 272 275 275 272 265 257 251 248 248 250 252 252 253 254 256 257 259 261 263 265 267 267 268 270
211 242 100 110 281 280 273 262 250 247 255 264 265 260 251 244 237 228 233 239 238 245 253 258 265 271 272 272 274 279 283 283 280 274 266 261 262 262 256 245 234 229 230 233 234 235 235 235 234 235 237 236 236 237 240 242 244 247 251 255 260 265 271 273 271 266 260 253 249 249 250 250 249 250 252 253 255 257 259 261 263 265 266 267 269 271
200 238 60 128 272 278 278 257 246 257 262 261 263 259 246 238 235 230 230 230 226 234 248 255 258 263 268 273 278 282 285 286 284 276 268 267 264 253 245 242 242 240 235 235 237 237 237 236 235 237 239 238 237 239 242 243 245 247 251 255 261 268 270 270 268 263 256 251 249 249 248 249 249 250 251 252 254 257 259 260 262 264 266 267 269 271
195 233 247 207 260 273 278 70 314 304 287 265 257 257 247 235 226 224 226 225 219 222 239 253 252 258 273 289 296 299 302 304 302 294 280 275 273 261 248 243 248 251 244 237 238 240 240 240 239 240 240 239 239 242 244 245 246 249 253 257 263 269 269 268 266 259 254 251 247 247 247 248 249 250 250 252 255 256 259 261 263 265 266 268 270 271
195 219 248 239 256 270 289 5 330 296 271 261 245 56 286 276 252 241 243 242 231 220 226 245 259 273 284 292 297 301 304 303 300 296 281 273 275 271 262 256 259 264 258 246 243 245 245 242 240 239 239 239 242 244 245 245 246 250 254 258 265 270 269 268 264 256 251 248 246 246 247 247 249 250 251 252 255 257 260 262 264 266 267 269 271 272
180 200 238 237 251 275 298 329 301 265 251 288 357 28 305 297 282 269 269 271 265 251 247 254 262 270 279 288 295 296 296 297 296 288 274 272 273 269 266 267 268 269 265 254 248 248 247 242 238 238 239 241 244 245 244 244 246 250 254 260 267 270 269 266 260 253 249 246 246 246 246 248 249 250 252 253 256 259 261 263 265 267 269 270 272 274
179 186 220 237 241 266 276 253 244 265 317 317 308 359 60 37 345 303 285 283 281 271 265 268 274 283 295 302 302 300 298 295 290 279 278 283 282 273 272 278 278 271 265 260 256 254 251 245 242 243 245 246 247 246 245 245 248 251 256 262 268 269 266 260 254 250 248 246 246 246 247 249 250 252 253 255 257 260 262 265 267 268 270 271 273 275
196 191 212 238 229 237 255 251 257 291 311 307 299 50 50 35 40 16 314 301 302 296 295 303 310 317 320 316 313 313 308 297 286 283 285 286 285 279 283 293 289 271 262 262 259 254 250 247 247 249 249 250 249 246 245 246 249 252 257 263 265 263 259 254 250 248 247 245 246 246 247 249 251 253 254 256 258 261 263 265 267 269 271 272 274 276
219 216 217 230 229 233 252 265 278 286 294 349 57 60 39 23 24 0 300 295 344 3 352 343 331 324 322 320 317 315 309 296 292 299 298 294 299 303 302 301 292 274 262 259 253 246 245 246 249 250 249 248 246 244 244 247 250 254 258 261 261 258 254 251 249 246 245 245 245 246 247 249 251 253 255 256 259 261 263 266 268 270 272 273 275 277
230 249 237 245 252 241 239 254 264 262 283 47 57 61 37 17 347 315 283 274 11 2 351 344 333 325 323 321 319 316 307 294 293 302 313 316 314 313 307 299 290 275 262 254 246 244 247 248 247 246 244 243 242 242 244 248 252 256 259 260 259 255 252 250 248 246 245 245 245 246 247 249 251 253 256 257 260 262 265 267 269 271 273 275 276 278
213 230 219 234 247 242 239 252 258 258 318 10 14 11 7 329 308 299 276 298 355 345 340 338 330 323 320 317 316 315 300 295 300 307 312 310 307 307 303 293 284 272 261 252 246 246 249 247 246 246 245 244 243 244 246 250 254 257 260 261 259 254 253 251 249 246 245 245 245 247 249 251 252 254 257 259 262 264 266 268 271 273 275 276 277 279
191 207 217 229 240 244 240 245 264 275 339 7 1 355 344 305 281 286 297 333 340 332 329 328 320 316 317 313 310 307 298 299 302 304 306 305 302 300 297 288 277 266 255 249 248 249 250 249 250 250 249 245 244 246 249 252 257 261 263 262 259 257 255 252 247 245 244 245 247 249 250 252 254 255 258 260 263 266 268 270 272 273 275 277 278 279
178 192 220 224 231 248 242 245 273 279 37 28 1 347 352 336 299 317 325 326 326 322 321 321 316 316 318 314 308 304 301 300 300 301 302 299 296 295 293 284 273 263 255 251 250 250 250 251 251 250 247 245 245 249 253 256 259 263 264 262 261 259 254 249 245 244 244 246 249 250 250 253 255 257 259 261 263 266 269 271 273 274 275 276 277 279
180 193 219 213 212 234 232 239 275 277 26 23 6 352 3 352 320 321 322 319 319 320 320 318 317 319 320 318 314 309 306 304 301 301 301 297 293 292 290 283 274 265 259 256 254 252 252 252 252 250 248 247 248 251 254 257 262 265 265 264 261 256 250 246 245 244 245 247 250 251 252 254 256 258 261 263 265 268 270 272 273 275 277 277 277 279
60 33 305 281 141 318 243 238 338 333 3 15 11 345 326 328 324 325 326 322 320 321 320 318 316 317 319 319 316 311 309 306 303 302 303 299 295 293 290 284 275 265 260 257 255 254 255 253 253 251 248 248 250 252 256 260 264 266 266 263 257 250 247 246 244 245 247 249 250 251 253 255 257 259 262 265 267 269 271 273 275 276 278 279 280 280
48 14 324 287 339 345 283 270 346 348 347 353 349 330 323 328 330 330 328 322 317 316 317 317 315 315 318 317 314 310 307 305 305 306 304 300 296 295 290 284 276 267 260 257 254 255 256 255 254 252 249 250 251 253 258 263 265 267 266 260 252 247 245 244 245 247 249 250 250 252 254 255 258 261 264 267 269 271 273 274 275 276 277 279 281 282
27 8 345 307 336 340 306 311 348 351 343 337 329 322 325 330 329 328 325 320 316 315 315 315 313 313 314 313 310 307 304 303 305 306 304 301 298 295 289 282 275 266 258 256 256 256 256 255 253 251 250 252 254 256 261 265 267 267 264 256 248 245 243 243 246 248 250 250 251 253 254 257 260 263 266 268 269 271 273 274 275 276 278 280 281 283
5 3 358 339 342 338 311 329 350 343 328 322 317 318 327 329 325 322 319 315 313 313 313 313 312 311 310 309 308 305 303 303 303 304 303 302 299 296 289 281 275 267 261 259 259 258 257 255 254 253 253 256 259 261 264 268 268 265 259 252 246 243 242 245 248 250 251 252 252 254 256 259 262 265 267 269 270 271 272 273 274 275 277 279 281 283
337 345 350 337 328 316 292 318 338 327 315 311 316 326 330 328 324 321 319 316 313 312 312 312 312 312 311 310 310 309 306 303 302 303 303 301 300 298 289 280 275 270 265 262 261 261 261 259 258 258 258 262 265 266 268 269 267 262 256 250 247 244 244 247 249 252 253 254 254 256 259 261 264 266 267 270 271 272 273 274 275 277 279 280 282 283
320 323 338 331 316 304 301 325 334 325 312 314 326 329 328 327 325 321 320 320 319 316 315 314 312 312 311 310 310 311 309 304 303 305 304 301 301 298 289 281 277 273 268 266 266 265 264 262 262 262 264 267 269 270 270 269 265 260 255 251 249 247 247 249 252 253 255 256 257 259 261 264 267 268 269 270 271 272 274 276 278 280 282 284 285 286
342 334 345 338 321 322 328 330 332 328 315 320 324 324 325 327 325 321 321 321 320 318 317 316 313 311 310 309 309 310 308 304 304 306 304 301 299 296 288 281 278 274 271 271 270 269 267 265 265 265 267 270 272 272 272 269 264 259 255 252 251 250 251 253 254 255 256 258 260 262 265 269 271 272 273 272 272 274 276 277 279 281 283 286 288 287
358 350 342 333 320 318 318 320 324 323 313 314 317 318 321 325 325 323 322 321 320 319 319 317 314 312 311 309 309 310 308 306 306 306 305 302 299 294 287 281 277 275 275 275 273 271 269 268 268 270 272 274 275 275 274 269 263 259 255 253 253 253 254 255 256 258 260 262 265 267 269 272 274 275 275 275 275 278 280 281 283 284 287 289 291 291
Height
1528 1526 1527 1530 1532 1535 1536 1537 1537 1535 1533 1530 1528 1527 1526 1525 1523 1523 1530 1534 1536 1534 1527 1522 1520 1517 1514 1513 1513 1516 1518 1520 1520 1521 1521 1522 1523 1524 1524 1525 1525 1526 1527 1529 1529 1530 1531 1531 1532 1533 1534 1535 1536 1536 1537 1538 1539 1539 1540 1540 1541 1541 1542 1542 1543 1543 1543 1543 1544 1544 1544 1544 1544 1543 1543 1542 1542 1542 1542 1542 1541 1541 1541 1541 1540 1540
1528 1526 1532 1538 1539 1540 1540 1540 1539 1537 1534 1532 1530 1528 1526 1525 1524 1525 1530 1533 1535 1535 1525 1520 1520 1516 1513 1511 1510 1511 1513 1514 1514 1516 1517 1518 1519 1520 1521 1522 1523 1524 1526 1527 1527 1527 1528 1529 1530 1531 1532 1533 1534 1535 1535 1536 1537 1537 1538 1539 1539 1540 1540 1540 1541 1541 1541 1541 1542 1542 1542 1542 1541 1541 1541 1540 1540 1539 1539 1538 1538 1538 1538 1538 1537 1537
1527 1531 1538 1542 1542 1542 1541 1541 1540 1537 1535 1531 1529 1528 1526 1525 1525 1525 1531 1534 1534 1534 1525 1520 1520 1514 1509 1507 1504 1505 1506 1507 1509 1510 1512 1514 1515 1516 1517 1519 1520 1522 1523 1523 1524 1525 1526 1527 1528 1529 1530 1531 1532 1532 1533 1534 1535 1535 1536 1537 1537 1538 1538 1538 1539 1539 1539 1539 1539 1539 1539 1539 1539 1538 1538 1537 1537 1536 1536 1535 1535 1535 1534 1534 1534 1533
1528 1535 1542 1543 1543 1542 1540 1540 1540 1537 1533 1531 1529 1527 1526 1527 1529 1528 1531 1534 1533 1532 1527 1525 1525 1514 1504 1502 1499 1499 1501 1503 1506 1507 1508 1510 1511 1512 1514 1515 1517 1518 1520 1520 1521 1523 1523 1524 1525 1526 1527 1528 1529 1530 1531 1531 1532 1533 1534 1534 1535 1536 1536 1536 1536 1536 1537 1537 1536 1536 1536 1536 1536 1535 1535 1534 1534 1534 1533 1533 1532 1531 1531 1531 1530 1530
1535 1542 1544 1544 1545 1542 1540 1540 1539 1536 1530 1530 1533 1531 1529 1532 1534 1532 1531 1532 1529 1528 1531 1530 1522 1505 1494 1496 1494 1495 1500 1502 1503 1504 1505 1507 1508 1510 1511 1512 1513 1514 1516 1517 1518 1520 1521 1521 1522 1523 1524 1525 1526 1528 1528 1529 1530 1530 1531 1532 1532 1533 1533 1533 1534 1534 1534 1534 1534 1534 1533 1533 1533 1532 1532 1531 1531 1530 1530 1529 1528 1527 1527 1527 1527 1527
1541 1546 1545 1545 1544 1543 1543 1539 1538 1539 1530 1527 1534 1537 1537 1537 1538 1535 1534 1533 1525 1521 1528 1530 1520 1501 1490 1492 1492 1494 1500 1500 1501 1503 1502 1504 1505 1507 1508 1508 1510 1511 1512 1514 1516 1517 1518 1518 1519 1520 1522 1523 1524 1525 1526 1527 1527 1528 1529 1530 1530 1530 1531 1531 1531 1531 1531 1531 1531 1531 1531 1530 1530 1529 1529 1529 1528 1528 1527 1527 1526 1524 1523 1523 1523 1523
1542 1546 1546 1545 1544 1543 1543 1539 1540 1543 1533 1528 1536 1541 1541 1541 1541 1538 1535 1534 1525 1517 1522 1528 1524 1510 1495 1490 1488 1491 1497 1497 1498 1500 1499 1501 1502 1502 1503 1504 1506 1507 1508 1510 1512 1514 1515 1515 1516 1517 1518 1520 1521 1522 1523 1524 1524 1525 1526 1527 1527 1528 1528 1528 1528 1529 1529 1529 1529 1528 1528 1528 1527 1527 1527 1527 1526 1525 1525 1524 1524 1523 1521 1520 1520 1519
1543 1545 1545 1545 1544 1542 1539 1537 1540 1544 1537 1532 1541 1545 1543 1542 1541 1537 1535 1533 1524 1519 1519 1521 1523 1517 1503 1490 1484 1488 1493 1493 1494 1495 1495 1496 1497 1497 1498 1499 1501 1503 1504 1506 1508 1510 1511 1511 1512 1514 1515 1516 1518 1518 1519 1520 1521 1522 1523 1524 1525 1525 1525 1525 1526 1526 1526 1526 1526 1525 1525 1525 1525 1524 1524 1524 1523 1523 1522 1522 1521 1520 1520 1518 1517 1516
1544 1543 1543 1544 1542 1538 1536 1539 1542 1544 1539 1538 1544 1545 1542 1542 1539 1536 1535 1528 1523 1524 1519 1514 1519 1518 1501 1486 1483 1489 1490 1489 1489 1489 1490 1491 1492 1493 1493 1495 1497 1498 1501 1502 1504 1505 1506 1508 1509 1510 1511 1512 1513 1515 1516 1518 1518 1519 1520 1521 1522 1522 1522 1522 1523 1523 1523 1523 1523 1523 1522 1522 1522 1521 1521 1520 1520 1520 1519 1519 1518 1517 1516 1515 1514 1513
1544 1542 1543 1543 1540 1537 1538 1543 1544 1544 1541 1541 1545 1544 1542 1542 1538 1536 1534 1525 1525 1529 1518 1510 1517 1517 1499 1481 1481 1489 1488 1485 1483 1482 1484 1486 1486 1488 1489 1491 1493 1495 1498 1499 1500 1501 1502 1504 1505 1505 1506 1508 1510 1512 1513 1515 1516 1516 1517 1518 1519 1519 1519 1520 1520 1520 1520 1520 1520 1520 1519 1519 1519 1518 1517 1517 1516 1516 1516 1515 1515 1514 1513 1512 1511 1510
1544 1544 1545 1543 1540 1539 1542 1544 1545 1545 1544 1544 1544 1541 1538 1535 1533 1532 1528 1525 1528 1522 1513 1513 1518 1519 1507 1482 1472 1480 1481 1478 1478 1478 1481 1482 1483 1485 1486 1488 1490 1492 1494 1494 1496 1497 1498 1499 1500 1501 1503 1505 1507 1509 1510 1511 1512 1513 1514 1515 1516 1516 1517 1517 1517 1517 1517 1517 1517 1516 1516 1516 1515 1515 1514 1514 1513 1513 1512 1512 1511 1511 1510 1510 1509 1508
1544 1543 1542 1542 1541 1542 1543 1543 1545 1547 1546 1545 1541 1535 1531 1526 1525 1527 1523 1527 1528 1513 1511 1520 1521 1522 1514 1486 1469 1473 1476 1474 1475 1476 1478 1480 1481 1483 1484 1486 1487 1488 1488 1490 1491 1492 1493 1495 1496 1498 1500 1502 1504 1505 1507 1508 1509 1510 1511 1512 1513 1513 1514 1514 1514 1514 1514 1514 1513 1513 1513 1512 1512 1511 1511 1510 1510 1509 1509 1508 1508 1508 1507 1507 1506 1506
1537 1537 1538 1541 1542 1542 1542 1539 1541 1544 1544 1543 1537 1532 1531 1522 1519 1521 1518 1518 1516 1508 1514 1524 1523 1519 1504 1482 1473 1472 1473 1474 1474 1474 1475 1477 1479 1480 1482 1482 1483 1484 1485 1486 1487 1487 1489 1491 1493 1495 1497 1499 1501 1502 1503 1505 1506 1507 1508 1509 1510 1510 1511 1511 1511 1511 1511 1511 1510 1510 1509 1509 1508 1508 1507 1507 1506 1506 1505 1505 1505 1504 1504 1504 1504 1503
1528 1532 1537 1539 1539 1540 1540 1534 1532 1536 1538 1538 1532 1529 1530 1526 1524 1524 1517 1510 1507 1507 1514 1522 1523 1513 1491 1474 1470 1468 1468 1471 1472 1473 1474 1475 1477 1478 1479 1480 1480 1481 1482 1483 1483 1484 1486 1488 1490 1492 1494 1496 1498 1499 1500 1502 1503 1504 1505 1506 1507 1507 1508 1508 1508 1508 1508 1507 1506 1506 1506 1505 1505 1504 1504 1503 1503 1502 1502 1501 1501 1501 1501 1500 1500 1500
1525 1526 1530 1534 1534 1536 1538 1534 1533 1533 1532 1531 1530 1530 1531 1529 1529 1526 1519 1513 1510 1508 1512 1520 1520 1504 1483 1471 1466 1465 1467 1469 1471 1473 1474 1474 1476 1476 1477 1478 1478 1479 1480 1480 1481 1482 1484 1485 1488 1490 1491 1493 1495 1496 1497 1499 1500 1501 1502 1503 1503 1504 1504 1504 1504 1504 1504 1503 1503 1502 1502 1502 1501 1501 1500 1499 1498 1498 1497 1497 1497 1497 1497 1497 1497 1497
1524 1520 1529 1536 1534 1536 1537 1536 1538 1536 1530 1529 1532 1533 1531 1527 1525 1523 1523 1523 1525 1523 1517 1515 1507 1487 1473 1466 1463 1466 1468 1468 1471 1472 1473 1475 1474 1475 1475 1475 1476 1476 1477 1478 1479 1480 1482 1484 1486 1487 1489 1491 1492 1493 1494 1495 1497 1498 1499 1500 1500 1501 1501 1501 1501 1501 1500 1500 1499 1499 1499 1498 1497 1497 1496 1495 1494 1493 1493 1493 1493 1493 1493 1493 1493 1494
1522 1520 1532 1538 1535 1538 1537 1536 1540 1536 1530 1531 1531 1529 1528 1528 1526 1524 1526 1529 1534 1531 1513 1501 1493 1480 1473 1465 1460 1465 1468 1468 1471 1471 1472 1474 1473 1473 1473 1472 1473 1474 1474 1476 1477 1478 1480 1482 1484 1485 1487 1488 1489 1490 1491 1492 1494 1494 1496 1496 1497 1497 1497 1498 1498 1497 1497 1497 1496 1495 1495 1494 1493 1492 1491 1491 1490 1490 1490 1490 1490 1490 1490 1490 1490 1491
1529 1523 1529 1535 1533 1537 1539 1538 1538 1537 1535 1532 1528 1527 1528 1529 1528 1527 1528 1527 1525 1518 1499 1489 1487 1482 1480 1472 1461 1465 1469 1467 1469 1469 1470 1472 1471 1471 1470 1470 1471 1471 1473 1474 1475 1477 1478 1480 1482 1483 1484 1485 1486 1487 1488 1489 1490 1491 1492 1493 1493 1494 1494 1494 1494 1494 1493 1493 1493 1492 1490 1490 1488 1488 1487 1487 1486 1486 1486 1487 1487 1487 1487 1486 1487 1486
1535 1525 1524 1534 1534 1535 1540 1538 1533 1534 1537 1532 1530 1532 1530 1528 1525 1524 1529 1526 1519 1513 1498 1486 1483 1481 1479 1472 1462 1463 1465 1464 1465 1467 1468 1468 1468 1467 1466 1468 1469 1469 1471 1473 1474 1475 1476 1478 1479 1480 1481 1482 1483 1485 1485 1486 1487 1488 1489 1489 1490 1490 1490 1491 1490 1490 1490 1489 1488 1487 1486 1485 1484 1484 1484 1483 1483 1483 1483 1483 1483 1483 1483 1483 1483 1482
1536 1528 1523 1531 1535 1535 1536 1534 1526 1525 1534 1537 1534 1533 1531 1530 1526 1522 1525 1523 1518 1514 1502 1488 1483 1475 1467 1461 1458 1459 1459 1459 1462 1463 1464 1464 1462 1462 1463 1464 1465 1466 1468 1469 1470 1472 1473 1475 1476 1477 1479 1479 1480 1481 1482 1483 1484 1484 1485 1486 1486 1487 1487 1487 1487 1486 1486 1485 1484 1483 1482 1481 1481 1480 1480 1480 1480 1479 1480 1480 1480 1480 1480 1480 1480 1479
1536 1532 1524 1527 1536 1534 1525 1522 1516 1512 1522 1531 1531 1530 1530 1531 1530 1527 1524 1520 1517 1514 1505 1496 1484 1466 1454 1452 1453 1454 1455 1456 1458 1458 1459 1459 1459 1459 1460 1460 1462 1463 1464 1466 1467 1469 1470 1472 1473 1474 1476 1476 1477 1478 1479 1480 1480 1481 1482 1482 1483 1483 1483 1483 1483 1482 1482 1481 1480 1479 1479 1478 1478 1477 1477 1477 1476 1476 1477 1477 1477 1477 1477 1477 1477 1476
1533 1531 1525 1522 1525 1520 1512 1513 1515 1512 1514 1517 1518 1519 1520 1522 1527 1526 1520 1516 1519 1515 1504 1500 1489 1461 1447 1450 1450 1451 1454 1454 1454 1455 1455 1456 1457 1457 1457 1458 1459 1459 1461 1462 1464 1466 1468 1469 1470 1471 1472 1473 1474 1475 1475 1476 1477 1477 1478 1479 1479 1479 1479 1479 1479 1478 1478 1477 1476 1476 1475 1475 1475 1474 1474 1474 1474 1473 1474 1474 1474 1475 1475 1474 1474 1474
1535 1532 1527 1519 1512 1509 1511 1515 1518 1517 1516 1515 1514 1511 1510 1515 1518 1517 1512 1511 1519 1517 1507 1510 1501 1462 1440 1446 1450 1449 1452 1452 1452 1454 1453 1454 1455 1455 1455 1456 1456 1457 1459 1460 1462 1464 1465 1466 1467 1468 1469 1470 1471 1471 1472 1473 1473 1474 1474 1475 1475 1475 1475 1475 1475 1475 1474 1474 1473 1472 1472 1472 1471 1471 1471 1471 1471 1471 1471 1472 1472 1472 1472 1472 1471 1471
1537 1532 1526 1518 1505 1504 1514 1519 1519 1521 1519 1516 1512 1509 1509 1510 1510 1511 1511 1511 1513 1509 1503 1509 1498 1457 1437 1446 1449 1447 1451 1451 1451 1452 1452 1453 1453 1453 1454 1454 1454 1455 1457 1458 1460 1461 1463 1463 1464 1465 1465 1466 1467 1467 1468 1469 1469 1470 1470 1471 1471 1471 1471 1471 1471 1471 1471 1470 1470 1469 1469 1468 1468 1468 1468 1468 1468 1468 1469 1469 1469 1469 1469 1469 1469 1469
1533 1524 1521 1519 1507 1501 1506 1508 1511 1517 1520 1513 1506 1506 1507 1509 1514 1518 1517 1518 1514 1500 1494 1502 1485 1449 1440 1450 1449 1448 1452 1450 1450 1451 1450 1451 1451 1450 1452 1451 1452 1453 1454 1456 1457 1457 1459 1459 1459 1461 1461 1462 1463 1463 1464 1465 1465 1466 1466 1467 1467 1467 1467 1467 1468 1468 1467 1467 1466 1466 1466 1465 1465 1466 1465 1465 1465 1465 1466 1467 1467 1467 1467 1466 1466 1466
1531 1521 1517 1518 1512 1503 1496 1491 1492 1500 1507 1506 1501 1502 1505 1508 1516 1516 1511 1514 1510 1493 1489 1493 1474 1444 1439 1448 1448 1449 1451 1449 1449 1449 1448 1449 1449 1448 1449 1449 1449 1450 1451 1452 1453 1453 1454 1455 1456 1457 1457 1458 1459 1459 1460 1461 1461 1462 1463 1463 1464 1464 1464 1463 1464 1464 1464 1463 1463 1463 1463 1463 1463 1463 1463 1463 1463 1463 1464 1464 1464 1464 1464 1464 1464 1464
1531 1524 1518 1514 1508 1500 1490 1485 1490 1496 1497 1497 1497 1501 1506 1509 1511 1510 1507 1501 1491 1485 1483 1474 1462 1450 1442 1442 1445 1446 1447 1446 1446 1446 1445 1446 1445 1445 1446 1446 1446 1447 1447 1448 1449 1449 1450 1451 1452 1453 1453 1454 1455 1455 1456 1457 1458 1459 1459 1460 1460 1460 1460 1460 1459 1460 1460 1460 1459 1459 1460 1460 1460 1460 1460 1460 1461 1461 1461 1461 1461 1461 1461 1461 1461 1462
1531 1524 1517 1513 1506 1497 1490 1487 1492 1498 1496 1493 1494 1498 1503 1507 1509 1510 1503 1486 1478 1484 1475 1454 1453 1458 1445 1438 1442 1443 1443 1443 1442 1443 1443 1443 1443 1443 1443 1443 1443 1444 1444 1445 1445 1445 1446 1447 1448 1449 1449 1450 1451 1451 1453 1453 1454 1455 1456 1456 1457 1456 1457 1456 1456 1455 1456 1456 1456 1456 1457 1457 1457 1457 1457 1458 1458 1458 1459 1459 1459 1458 1458 1459 1459 1459
1531 1520 1511 1512 1508 1499 1496 1494 1494 1496 1495 1492 1492 1492 1494 1500 1504 1502 1491 1479 1478 1482 1465 1446 1450 1453 1442 1438 1440 1440 1441 1441 1440 1441 1441 1441 1441 1441 1440 1440 1440 1440 1441 1441 1441 1441 1442 1443 1444 1444 1445 1446 1447 1448 1449 1450 1451 1452 1452 1453 1453 1453 1453 1452 1452 1452 1452 1453 1453 1454 1454 1454 1454 1454 1455 1455 1455 1456 1456 1456 1456 1455 1455 1456 1456 1456
1529 1516 1510 1517 1513 1501 1497 1497 1495 1495 1493 1490 1489 1487 1487 1489 1491 1490 1483 1477 1479 1476 1461 1453 1455 1448 1441 1441 1440 1438 1441 1441 1439 1440 1439 1439 1439 1438 1438 1438 1437 1437 1437 1437 1437 1437 1438 1439 1440 1440 1441 1442 1443 1444 1445 1446 1447 1448 1449 1449 1449 1449 1449 1448 1448 1448 1449 1450 1450 1450 1451 1451 1451 1452 1452 1452 1453 1453 1453 1453 1453 1453 1453 1453 1453 1453
1527 1515 1512 1519 1516 1501 1491 1491 1492 1492 1492 1490 1486 1482 1481 1482 1481 1481 1479 1476 1477 1473 1462 1460 1460 1449 1440 1440 1439 1439 1439 1439 1438 1437 1436 1436 1436 1435 1435 1434 1434 1434 1433 1433 1433 1433 1434 1435 1436 1436 1437 1438 1439 1440 1441 1442 1443 1444 1445 1445 1445 1445 1445 1444 1445 1445 1445 1446 1447 1447 1448 1448 1449 1449 1449 1449 1450 1450 1450 1450 1450 1450 1450 1450 1450 1450
1526 1518 1512 1518 1515 1496 1486 1489 1491 1491 1491 1489 1481 1473 1471 1473 1472 1469 1468 1467 1469 1468 1463 1463 1462 1450 1438 1436 1438 1437 1436 1436 1435 1434 1433 1433 1432 1432 1431 1431 1431 1431 1430 1429 1429 1429 1430 1431 1431 1432 1433 1434 1435 1436 1437 1439 1439 1440 1441 1441 1441 1441 1441 1440 1441 1441 1442 1443 1444 1444 1445 1445 1445 1446 1446 1447 1447 1447 1447 1447 1447 1447 1447 1447 1447 1447
1523 1517 1509 1512 1509 1492 1486 1492 1491 1491 1490 1476 1462 1457 1455 1455 1457 1457 1457 1457 1457 1460 1461 1459 1452 1441 1435 1436 1436 1434 1434 1434 1432 1432 1432 1431 1430 1429 1428 1428 1427 1427 1426 1427 1426 1425 1426 1426 1427 1428 1429 1430 1431 1432 1434 1435 1436 1437 1437 1437 1437 1437 1437 1436 1437 1438 1438 1439 1440 1441 1442 1442 1442 1443 1443 1444 1444 1444 1444 1444 1444 1444 1444 1444 1444 1443
1519 1517 1509 1507 1503 1492 1487 1491 1493 1494 1484 1459 1446 1448 1449 1447 1450 1450 1449 1449 1450 1452 1453 1448 1441 1437 1437 1437 1435 1434 1433 1432 1430 1430 1430 1429 1428 1427 1425 1425 1424 1423 1423 1423 1422 1422 1422 1423 1424 1425 1425 1427 1428 1429 1431 1432 1432 1433 1433 1433 1433 1433 1433 1433 1433 1434 1435 1436 1437 1438 1438 1439 1439 1440 1440 1441 1441 1441 1441 1441 1441 1441 1441 1441 1440 1440
1516 1518 1512 1507 1505 1497 1491 1497 1500 1487 1464 1447 1445 1449 1449 1449 1450 1449 1446 1446 1448 1449 1446 1442 1439 1438 1437 1436 1435 1434 1431 1429 1428 1427 1427 1427 1425 1423 1422 1421 1420 1420 1419 1419 1418 1418 1419 1419 1420 1421 1423 1424 1425 1426 1427 1428 1428 1429 1429 1429 1429 1429 1429 1430 1430 1431 1432 1433 1434 1435 1435 1436 1436 1437 1437 1438 1438 1437 1437 1438 1438 1438 1438 1437 1437 1436
1512 1515 1511 1507 1507 1502 1494 1495 1487 1463 1444 1441 1446 1448 1450 1451 1452 1452 1450 1448 1448 1447 1443 1439 1438 1437 1437 1436 1435 1432 1429 1427 1425 1424 1424 1423 1421 1420 1419 1418 1418 1417 1416 1415 1415 1415 1416 1417 1418 1419 1420 1421 1421 1423 1423 1424 1425 1425 1425 1426 1426 1426 1426 1426 1427 1427 1428 1429 1430 1431 1432 1432 1433 1433 1434 1434 1434 1434 1434 1435 1435 1435 1434 1434 1433 1433
1508 1509 1509 1507 1504 1498 1491 1482 1468 1455 1448 1445 1446 1450 1455 1454 1453 1456 1456 1450 1445 1444 1442 1440 1439 1438 1438 1436 1434 1431 1429 1425 1422 1420 1419 1418 1417 1417 1417 1417 1416 1415 1413 1413 1413 1413 1413 1414 1415 1416 1417 1418 1419 1419 1420 1421 1421 1422 1422 1423 1423 1423 1423 1423 1423 1424 1425 1426 1427 1428 1428 1429 1430 1430 1431 1431 1431 1431 1431 1431 1431 1431 1431 1430 1430 1429
1509 1506 1506 1507 1497 1490 1490 1486 1476 1468 1458 1450 1453 1459 1459 1458 1457 1459 1460 1452 1445 1445 1446 1445 1444 1442 1439 1437 1434 1431 1429 1425 1420 1417 1416 1416 1415 1416 1416 1415 1414 1412 1411 1410 1410 1410 1411 1412 1413 1414 1414 1415 1416 1416 1417 1418 1418 1419 1419 1419 1419 1419 1419 1419 1420 1421 1422 1423 1424 1425 1425 1426 1427 1427 1428 1428 1428 1428 1428 1428 1428 1428 1427 1427 1426 1425
1510 1506 1505 1506 1496 1488 1491 1490 1482 1470 1458 1454 1460 1461 1459 1460 1459 1459 1459 1451 1442 1444 1448 1446 1444 1442 1439 1437 1435 1431 1429 1425 1419 1415 1415 1415 1414 1414 1413 1412 1411 1410 1408 1408 1408 1408 1409 1409 1410 1411 1411 1412 1412 1413 1413 1414 1415 1415 1415 1415 1416 1416 1416 1417 1418 1419 1420 1420 1421 1421 1422 1423 1423 1424 1424 1425 1425 1425 1425 1425 1425 1424 1424 1423 1422 1421
1511 1509 1508 1506 1497 1491 1492 1488 1477 1466 1458 1458 1461 1461 1461 1462 1460 1460 1459 1449 1441 1445 1447 1445 1444 1442 1439 1438 1435 1432 1430 1425 1419 1416 1415 1414 1412 1412 1411 1410 1409 1407 1406 1405 1405 1406 1406 1406 1407 1407 1407 1408 1409 1409 1410 1411 1411 1411 1411 1412 1412 1412 1412 1414 1415 1416 1416 1417 1417 1418 1419 1420 1420 1421 1421 1421 1421 1421 1421 1421 1421 1421 1420 1419 1418 1417
1509 1508 1504 1501 1494 1489 1488 1486 1477 1467 1463 1464 1465 1463 1463 1462 1460 1460 1458 1451 1449 1451 1449 1447 1446 1442 1439 1437 1434 1430 1428 1424 1420 1417 1415 1413 1411 1409 1408 1407 1406 1405 1404 1403 1403 1403 1403 1403 1403 1404 1404 1405 1406 1406 1407 1408 1408 1408 1408 1408 1408 1408 1410 1411 1412 1412 1413 1413 1414 1415 1416 1416 1417 1417 1418 1418 1418 1418 1418 1418 1418 1417 1416 1415 1414 1413
1502 1505 1499 1496 1493 1486 1481 1480 1477 1470 1466 1469 1469 1466 1465 1466 1466 1463 1460 1458 1457 1454 1450 1448 1445 1441 1439 1436 1433 1429 1426 1422 1420 1417 1413 1411 1409 1406 1405 1404 1403 1402 1401 1401 1400 1400 1400 1400 1400 1401 1401 1402 1402 1403 1404 1404 1404 1404 1404 1404 1405 1406 1407 1408 1408 1409 1409 1410 1411 1412 1413 1413 1414 1414 1414 1415 1415 1415 1414 1414 1414 1413 1412 1411 1410 1409
1486 1489 1484 1482 1485 1482 1480 1482 1483 1477 1471 1471 1472 1470 1470 1474 1474 1469 1464 1461 1458 1454 1451 1448 1443 1441 1439 1435 1431 1428 1423 1419 1417 1414 1411 1409 1406 1404 1402 1400 1399 1399 1398 1398 1397 1397 1397 1397 1397 1398 1398 1398 1399 1400 1400 1401 1401 1401 1401 1402 1403 1404 1404 1405 1405 1406 1406 1407 1408 1409 1410 1410 1410 1411 1411 1411 1411 1411 1411 1410 1410 1409 1408 1407 1406 1405
1482 1484 1480 1477 1477 1479 1480 1481 1481 1479 1476 1476 1477 1478 1477 1477 1475 1471 1467 1462 1457 1454 1451 1447 1442 1440 1438 1435 1431 1426 1420 1417 1413 1410 1408 1406 1403 1401 1399 1397 1396 1395 1394 1394 1394 1394 1394 1394 1394 1394 1395 1395 1396 1396 1397 1398 1398 1398 1399 1400 1401 1401 1401 1402 1402 1403 1403 1405 1405 1406 1407 1407 1407 1407 1407 1408 1408 1407 1406 1406 1405 1404 1403 1403 1402 1401
1489 1493 1491 1486 1482 1483 1484 1481 1477 1476 1475 1475 1477 1478 1476 1474 1472 1470 1468 1463 1458 1454 1451 1447 1443 1438 1435 1433 1430 1424 1418 1414 1410 1407 1405 1402 1399 1397 1395 1393 1392 1391 1391 1391 1391 1390 1391 1391 1391 1391 1391 1391 1393 1393 1394 1395 1395 1395 1396 1397 1398 1398 1398 1399 1399 1400 1401 1402 1403 1403 1404 1404 1404 1404 1404 1404 1403 1403 1402 1402 1401 1400 1400 1398 1397 1396
1494 1494 1492 1488 1486 1487 1484 1478 1477 1477 1475 1474 1475 1475 1473 1472 1470 1467 1465 1461 1457 1453 1450 1447 1443 1438 1434 1431 1426 1422 1417 1412 1408 1404 1401 1398 1396 1394 1392 1390 1389 1388 1388 1388 1387 1388 1388 1388 1388 1388 1388 1388 1390 1390 1391 1392 1392 1393 1394 1394 1395 1395 1396 1396 1396 1397 1399 1399 1400 1401 1401 1400 1400 1400 1400 1400 1399 1399 1398 1398 1397 1396 1395 1394 1393 1392
1494 1494 1493 1491 1492 1492 1485 1477 1478 1479 1477 1476 1474 1472 1471 1471 1468 1466 1464 1460 1456 1451 1448 1444 1441 1437 1432 1428 1424 1420 1414 1408 1405 1402 1398 1395 1393 1390 1388 1387 1386 1385 1385 1385 1384 1385 1385 1385 1385 1385 1385 1386 1386 1387 1388 1389 1389 1390 1391 1391 1392 1392 1393 1393 1394 1395 1396 1397 1397 1397 1397 1397 1397 1397 1396 1396 1396 1395 1394 1393 1393 1392 1391 1391 1390 1388
1499 1498 1498 1496 1495 1493 1487 1483 1483 1481 1477 1476 1475 1474 1472 1469 1464 1461 1459 1457 1454 1450 1446 1442 1438 1434 1429 1425 1421 1417 1411 1405 1402 1399 1395 1392 1389 1387 1386 1384 1383 1383 1383 1382 1382 1382 1382 1382 1383 1382 1383 1383 1383 1385 1386 1386 1387 1388 1388 1388 1389 1389 1390 1390 1391 1392 1393 1394 1394 1394 1394 1393 1393 1393 1393 1392 1392 1391 1390 1389 1388 1387 1387 1387 1386 1385
1505 1503 1502 1500 1496 1491 1486 1484 1483 1478 1471 1470 1472 1473 1472 1470 1464 1458 1454 1451 1448 1445 1441 1437 1433 1431 1427 1423 1418 1414 1408 1402 1398 1396 1393 1389 1386 1384 1383 1382 1381 1381 1380 1380 1380 1380 1380 1380 1381 1381 1381 1381 1381 1382 1383 1383 1384 1384 1384 1385 1386 1386 1387 1388 1388 1389 1390 1390 1390 1390 1390 1390 1390 1390 1390 1389 1388 1387 1386 1385 1385 1383 1382 1382 1382 1381
1507 1505 1503 1501 1497 1492 1489 1488 1487 1482 1475 1470 1468 1468 1468 1467 1464 1458 1453 1450 1446 1441 1438 1433 1428 1424 1422 1419 1417 1413 1406 1399 1395 1393 1389 1385 1383 1381 1380 1380 1379 1378 1378 1378 1378 1377 1378 1378 1379 1379 1379 1379 1379 1379 1379 1380 1381 1381 1382 1382 1383 1383 1384 1385 1385 1386 1386 1387 1387 1387 1387 1387 1387 1386 1386 1385 1384 1383 1382 1381 1381 1380 1378 1377 1377 1377
1511 1509 1507 1505 1502 1498 1494 1492 1490 1488 1484 1478 1472 1468 1466 1464 1462 1457 1452 1449 1445 1440 1437 1432 1426 1420 1415 1412 1410 1409 1404 1398 1393 1389 1386 1382 1380 1379 1377 1377 1376 1376 1375 1375 1375 1375 1376 1376 1377 1377 1377 1377 1377 1376 1377 1377 1378 1378 1379 1379 1380 1380 1381 1381 1382 1383 1383 1383 1384 1384 1384 1384 1383 1382 1382 1381 1380 1379 1378 1377 1376 1376 1375 1374 1372 1371